This demonstration page uses our WeatherBlox Daily Observations layout. Learn more.

42.59453, -71.72452

Hourly Observations for July 12, 2018

Temp ( °F °C ) Dew Point ( °F °C ) Humidity (%) Winds ( mph kmh ) Pressure ( in mb ) Visibility ( mi km ) Precip ( " mm )
12:52 am 00:52 Clear 58 14.4 58 14.4 100 100 NNW 3 6 30.09 1019 10 16.09344 0 0
1:52 am 01:52 Clear 60 15.6 57 13.9 90 90 N 6 9 30.09 1019 10 16.09344 0 0
2:52 am 02:52 Clear 58 14.4 54 12.2 87 87 N 3 6 30.09 1019 10 16.09344 0 0
3:52 am 03:52 Clear 58 14.4 53 11.7 84 84 NNW 6 9 30.12 1020 10 16.09344 0 0
4:52 am 04:52 Clear 56 13.3 52 11.1 87 87 NNW 3 6 30.12 1020 10 16.09344 0 0
5:52 am 05:52 Sunny 55 12.8 52 11.1 90 90 N 5 7 30.15 1021 10 16.09344 0 0
6:52 am 06:52 Sunny 61 16.1 53 11.7 75 75 N 3 6 30.15 1021 10 16.09344 0 0
7:26 am 07:26 Partly Cloudy 64 17.8 55 12.8 73 73 N 3 6 30.18 1022 10 16.09344 0 0
7:52 am 07:52 Sunny 68 20 54 12.2 61 61 NNW 5 7 30.15 1021 10 16.09344 0 0
8:52 am 08:52 Sunny 72 22.2 50 10 46 46 NNE 9 15 30.18 1022 10 16.09344 0 0
9:52 am 09:52 Sunny 73 22.8 49 9.4 43 43 NNE 7 11 30.18 1022 10 16.09344 0 0
10:52 am 10:52 Sunny 75 23.9 49 9.4 40 40 ESE 7 11 30.18 1022 10 16.09344 0 0
11:52 am 11:52 Sunny 78 25.6 49 9.4 36 36 NE 8 13 30.18 1022 10 16.09344 0 0
12:52 pm 12:52 Sunny 79 26.1 49 9.4 35 35 N 6 9 30.21 1023 10 16.09344 0 0
1:52 pm 13:52 Mostly Sunny 79 26.1 49 9.4 35 35 W 5 7 30.18 1022 10 16.09344 0 0
2:52 pm 14:52 Partly Cloudy 82 27.8 49 9.4 32 32 NNE 9 15 30.18 1022 10 16.09344 0 0
3:52 pm 15:52 Sunny 81 27.2 48 8.9 32 32 NW 5 7 30.18 1022 10 16.09344 0 0
4:52 pm 16:52 Partly Cloudy 80 26.7 49 9.4 34 34 NNE 6 9 30.18 1022 10 16.09344 0 0
5:52 pm 17:52 Partly Cloudy 78 25.6 52 11.1 40 40 SSE 13 20 30.18 1022 10 16.09344 0 0
6:52 pm 18:52 Mostly Cloudy 78 25.6 53 11.7 42 42 SE 12 19 30.18 1022 10 16.09344 0 0
7:52 pm 19:52 Sunny 75 23.9 52 11.1 45 45 SE 8 13 30.21 1023 10 16.09344 0 0
8:52 pm 20:52 Clear 71 21.7 51 10.6 49 49 SE 3 6 30.21 1023 10 16.09344 0 0
9:52 pm 21:52 Cloudy 69 20.6 53 11.7 57 57 SE 3 6 30.24 1024 10 16.09344 0 0
10:52 pm 22:52 Cloudy 69 20.6 52 11.1 55 55 SSE 3 6 30.24 1024 10 16.09344 0 0
11:52 pm 23:52 Cloudy 68 20 54 12.2 61 61 Calm 30.24 1024 10 16.09344 0 0

Powered by AerisWeather